Regional & State Weather Roundups


588 
ASUS43 KFGF 150631
RWRFGF
PRAIRIE TO PINES  WEATHER ROUNDUP
NATIONAL WEATHER SERVICE EASTERN NORTH DAKOTA/GRAND FORKS ND
1200 AM CST FRI DEC 15 2017
 **SATELLITE DATA USED TO AUGMENT SKY COVER AT AUTOMATED STATIONS**
 *****  WEATHER ACROSS EASTERN NORTH DAKOTA  *****
  
CITY           SKY/WX    TMP DP  RH WIND       PRES   REMARKS
GRAND FORKS    CLOUDY    20  17  88 N12       29.99F WCI   8          
6HR MIN TEMP:  19; 6HR MAX TEMP:  21; 6HR PCP: TRACE;                
GRAND FRKS AFB CLOUDY    19  16  86 N10       29.98F WCI   8          
GRAND FRKS NWS   N/A     19 N/A N/A N10         N/A  WCI   8          
DEVILS LAKE    CLOUDY    22  20  92 E5        29.96S WCI  16          
6HR MIN TEMP:  22; 6HR MAX TEMP:  30; 6HR PCP: TRACE;                
FARGO          CLOUDY    21  19  92 NE7       29.97F WCI  12          
WAHPETON ARPT  CLOUDY    28  25  86 CALM      29.95F                  
$$
 ***** WEATHER ACROSS CENTRAL AND WESTERN NORTH DAKOTA  *****
  
CITY           SKY/WX    TMP DP  RH WIND       PRES   REMARKS
BISMARCK       CLOUDY    34  25  69 NW8       29.98F                  
6HR MIN TEMP:  34; 6HR MAX TEMP:  36;                                
MINOT          CLOUDY    31  22  69 W9        29.95F WCI  23          
6HR MIN TEMP:  31; 6HR MAX TEMP:  35;                                
JAMESTOWN      CLOUDY    31  25  78 NW12      29.93F WCI  22          
6HR MIN TEMP:  30; 6HR MAX TEMP:  32; 6HR PCP: TRACE;                
MINOT AFB      CLOUDY    30  22  72 W8        29.93F WCI  22          
GARRISON         N/A     30  21  69 NW8       29.96F WCI  22          
WILLISTON      FAIR      27  21  78 CALM      29.99F                  
6HR MIN TEMP:  22; 6HR MAX TEMP:  30;                                
DICKINSON      FAIR      24  18  77 W8        29.96F WCI  15          
6HR MIN TEMP:  19; 6HR MAX TEMP:  30;                                
HETTINGER      FAIR      18  14  84 W7        30.02F WCI   9          
6HR MIN TEMP:  16; 6HR MAX TEMP:  27;                                
$$
 *****  OTHER AIRPORT OBSERVATIONS IN OUR AREA  *****
  
CITY           SKY/WX    TMP DP  RH WIND       PRES   REMARKS
WALHALLA       FAIR      18  18 100 NW6       29.99F WCI   9          
GRAFTON AIRPOR CLOUDY    18  16  93 N9        30.02S WCI   6          
VALLEY CITY AR CLOUDY    21  21 100 NE12      29.96S WCI   9          
CANDO          CLOUDY    21  21 100 E5        29.96F WCI  15          
CAVALIER APRT  CLOUDY    18  14  86 N8        30.00S WCI   7          
GWINNER          N/A     32  28  86 W10       29.94F WCI  24          
SHEYENNE NWR     N/A     31  31 100 NE6       29.95                   
ROLLA          CLOUDY    21  21 100 CALM      29.92F                  
 ***** THE ABOVE OBSERVATIONS ARE NON NWS ARE NOT QUALITY
       CONTROLLED AND MAY MIS-REPORT RAIN FOR SNOW...
$$
  *****  WEATHER ACROSS NORTHERN MINNESOTA  *****     
  
CITY           SKY/WX    TMP DP  RH WIND       PRES   REMARKS
FLAG ISLAND    CLOUDY    10   5  79 NW17      29.92F WCI  -7          
WARROAD        FLURRIES  10   7  85 NW12G17   29.94F WCI  -4          
ROSEAU         FLURRIES  12   9  85 NW13      29.95F WCI  -3          
HALLOCK        CLOUDY    14  12  92 NW6       29.99S WCI   5          
THF RVR FALLS  MOCLDY    13  10  88 NW8       29.96F WCI   2          
6HR MIN TEMP:  13; 6HR MAX TEMP:  17; 6HR PCP: TRACE;                
BAUDETTE       FLURRIES   9   5  84 NW14      29.92F WCI  -7          
6HR MIN TEMP:   7; 6HR MAX TEMP:  12; 6HR PCP: TRACE;                
WASKISH        MOCLDY    10   7  85 NW8       29.92F WCI  -1          
CROOKSTON      CLOUDY    18  18 100 N7        29.99S WCI   8          
STEPHEN NDAWN    N/A      9   7  92 NW3         N/A                   
GREENBUSH NDAW   N/A     12  10  92 NW5         N/A  WCI   4          
$$
  *****  WEATHER ACROSS CENTRAL AND WEST MINNESOTA  *****     
  
CITY           SKY/WX    TMP DP  RH WIND       PRES   REMARKS
FOSSTON        CLOUDY    14  12  92 NW7       29.94F WCI   4          
BEMIDJI        FLURRIES  14  11  87 NW10      29.91F WCI   1          
6HR MIN TEMP:  13; 6HR MAX TEMP:  14;                                
PARK RAPIDS    CLOUDY    14  10  84 W5        29.91F WCI   6          
6HR MIN TEMP:  10; 6HR MAX TEMP:  17; 6HR PCP: TRACE;                
ELBOW LAKE     CLOUDY    23  22  96 CALM      29.95F                  
6HR MIN TEMP:  21; 6HR MAX TEMP:  23;                                
WADENA         CLOUDY    16  14  93 NW3       29.93F                  
DETROIT LAKES  CLOUDY    19  18  93 NW3       29.94F                  
MOORHEAD       CLOUDY    19  18  93 CALM      29.98F                  
FERGUS FALLS   CLOUDY    23  23 100 CALM      29.98S                  
MORRIS MN      LGT SNOW  28  27  93 W5        29.95F WCI  23          
STAPLES        LGT SNOW  16  12  86 NW6       29.93F WCI   7          
$$
  *****  WEATHER ELSEWHERE ACROSS MINNESOTA  *****     
  
CITY           SKY/WX    TMP DP  RH WIND       PRES   REMARKS
DULUTH         FLURRIES  11   8  88 NW10      29.85F WCI  -3          
6HR MIN TEMP:  11; 6HR MAX TEMP:  15; 6HR PCP: TRACE;                
INTRNTL FALLS  CLOUDY    10   5  80 NW7       29.88F HAZE    WCI  -1  
6HR MIN TEMP:  10; 6HR MAX TEMP:  12; 6HR PCP:  0.01;                
ELY            FLURRIES   9   5  85 W7        29.83S WCI  -3          
CLOQUET        FLURRIES  12   7  79 W8        29.87F WCI   1          
WHEATON        LGT SNOW  30  28  93 W9        29.97F WCI  22          
BRAINERD       CLOUDY    17  10  74 NW8       29.94F WCI   7          
6HR MIN TEMP:  16; 6HR MAX TEMP:  20; 6HR PCP: TRACE;                
HIBBING        FLURRIES  11   6  81 NW12      29.86F WCI  -3          
6HR MIN TEMP:  11; 6HR MAX TEMP:  13; 6HR PCP: TRACE;                
ALEXANDRIA     CLOUDY    22  20  92 W3        29.95F                  
6HR MIN TEMP:  21; 6HR MAX TEMP:  22; 6HR PCP: TRACE;                
SAINT CLOUD    CLOUDY    21  17  84 W9        29.96F WCI  11          
6HR MIN TEMP:  20; 6HR MAX TEMP:  22; 6HR PCP: TRACE;                
MINNEAPOLIS    CLOUDY    23  16  74 W10       29.98F WCI  12          
6HR MIN TEMP:  22; 6HR MAX TEMP:  24; 6HR PCP: TRACE;                
$$
  *****  WEATHER ACROSS SOUTH DAKOTA  *****
  
CITY           SKY/WX    TMP DP  RH WIND       PRES   REMARKS
SIOUX FALLS    CLOUDY    29  25  85 W9        30.06F WCI  20          
6HR MIN TEMP:  28; 6HR MAX TEMP:  32;                                
BROOKINGS      FLURRIES  28  25  86 W9        30.00F WCI  20          
WATERTOWN      CLOUDY    28  25  88 W14       29.97F WCI  17          
6HR MIN TEMP:  25; 6HR MAX TEMP:  28; 6HR PCP: TRACE;                
HURON          CLOUDY    33  26  75 W13       30.04F WCI  24          
6HR MIN TEMP:  25; 6HR MAX TEMP:  33;                                
SISSETON         N/A     32  28  85 W13       29.95F WCI  22          
ABERDEEN       CLOUDY    33  27  78 W8        30.00F                  
6HR MIN TEMP:  26; 6HR MAX TEMP:  33;                                
MITCHELL       CLOUDY    33  27  78 W14       30.08F WCI  23          
PIERRE         MOCLDY    32  26  78 W9        30.06F WCI  24          
6HR MIN TEMP:  31; 6HR MAX TEMP:  34;                                
MOBRIDGE       MOCLDY    34  26  72 W12       29.99F                  
RAPID CITY     FAIR      17  11  77 CALM      30.05F                  
6HR MIN TEMP:  13; 6HR MAX TEMP:  33;                                
$$
  *****  SOME WEATHER IN NEARBY STATES *****
  
CITY           SKY/WX    TMP DP  RH WIND       PRES   REMARKS
GLASGOW MT     FAIR      24  21  88 SE6       29.95F WCI  17          
6HR MIN TEMP:  20; 6HR MAX TEMP:  29;                                
GREAT FALLS MT FAIR      36  18  48 SW17      30.03F                  
6HR MIN TEMP:  33; 6HR MAX TEMP:  36;                                
CHEYENNE WY    FAIR      21   8  57 W14       30.14F WCI   8          
6HR MIN TEMP:  20; 6HR MAX TEMP:  26;                                
SCOTTSBLUFF NE FAIR      14  10  84 CALM      30.16F                  
6HR MIN TEMP:  14; 6HR MAX TEMP:  30;                                
OMAHA NE       CLOUDY    36  26  67 NW15      30.13R                  
6HR MIN TEMP:  35; 6HR MAX TEMP:  38;                                
DES MOINES IA  CLOUDY    32  24  72 W3        30.06F                  
6HR MIN TEMP:  30; 6HR MAX TEMP:  32;                                
DAVENPORT IA   CLOUDY    25  17  72 SW12      30.04F WCI  14          
6HR MIN TEMP:  25; 6HR MAX TEMP:  26;                                
CHICAGO IL     CLOUDY    21  11  65 SW6       30.00F WCI  13          
6HR MIN TEMP:  20; 6HR MAX TEMP:  23;                                
EAU CLAIRE WI  FLURRIES  20  15  81 W9        29.92F WCI   9          
6HR MIN TEMP:  20; 6HR MAX TEMP:  21; 6HR PCP: TRACE;                
LA CROSSE WI   CLOUDY    24  16  71 W5        29.97F WCI  18          
6HR MIN TEMP:  24; 6HR MAX TEMP:  26;                                
$$
  *****  SOME NATIONAL WEATHER *****
  
CITY           SKY/WX    TMP DP  RH WIND       PRES   REMARKS
LA GUARDIA NY  FAIR      24   7  48 NW12      30.10R WCI  13          
6HR MIN TEMP:  23; 6HR MAX TEMP:  29;                                
RALEIGH NC     FAIR      35  27  72 NE7       30.03S                  
6HR MIN TEMP:  34; 6HR MAX TEMP:  46;                                
ATLANTA GA     CLOUDY    46  37  71 NW5       29.99F                  
6HR MIN TEMP:  45; 6HR MAX TEMP:  49;                                
NEW ORLEANS LA CLOUDY    54  51  90 N5        30.05R                  
6HR MIN TEMP:  52; 6HR MAX TEMP:  58;                                
OKLAHOMA CITY  FAIR      36  27  69 N9        30.22R                  
6HR MIN TEMP:  31; 6HR MAX TEMP:  42;                                
ALBUQUERQUE NM FAIR      33  14  45 N8        30.29R                  
6HR MIN TEMP:  33; 6HR MAX TEMP:  43;                                
SALT LAKE CITY FAIR      31  25  78 S8        30.41F WCI  23          
6HR MIN TEMP:  29; 6HR